Find Starlink 30380

NORAD ID: 57780 Int'l Des: 2023-134 Owner: SPXS Country: US Constellation: starlink operational
LEOCIRCULAR

Current View

Loading 3D Globe...

About Starlink 30380

Starlink 30380 (NORAD 57780) is a starlink constellation satellite (v2 mini) launched Sep 4, 2023 by SPXS of US. It operates in LEO, CIRCULAR orbit with a mass of 730.00 kg.

Upcoming Passes

Passes for default location (London). Set your location on the main map for personalized predictions.

Altitude History

Loading altitude history...

Two-Line Element Set

1 57780U 23134K 26236.31442599 -.00003023 00000-0 -10036-3 0 9999
2 57780 43.0052 327.7552 0002013 286.0627 74.0003 15.27573370165142
Epoch: Aug 24, 2026 • Age: 12 hours

Current Status

Altitude 484.2 km
Apogee / Perigee N/A
Velocity 7.63 km/s
Sub-Earth Point 25.75°N, 146.16°W
Launch Date Sep 4, 2023
Age 2.9 years
Type internet

Technical Details

Classification Payload
Mass 730.00 kg
Dry Mass 700.00 kg
Total Mass 730.00 kg
Length 0.30 m
Diameter 4.10 m
Span 29.00 m
Shape Box + pan
Manufacturer SPXS
Bus Type Starlink V2M
Phase Status In Orbit
Owner/State SPXS/US

Most Searched